Regional Weather Roundup
Issued by NWS Kansas City/Pleasant Hill, MO

Home | Current Version | Previous Version | Text Only | Print | Product List | Glossary On
Versions: 1 2 3 4 5 6 7 8 9 10 11 12 13 14 15 16 17 18 19 20 21 22 23 24 25 26 27 28 29 30 31 32 33 34 35 36 37 38 39 40 41 42 43 44 45 46 47 48 49 50
000
ASUS43 KEAX 302111
RWREAX

WEATHER ROUNDUP FOR EASTERN KANSAS AND NORTHWEST MISSOURI
NATIONAL WEATHER SERVICE KANSAS CITY/PLEASANT HILL MO
400 PM CDT TUE JUN 30 2015

KSZ040-057-103>105-MOZ028-029-037-043-302200-
...KANSAS CITY METROPOLITAN AREA...

CITY           SKY/WX    TMP DP  RH WIND       PRES   REMARKS
K.C. INTL      CLOUDY    86  66  51 E6        29.92F
K.C. DOWNTOWN  CLOUDY    88  64  44 N7        29.90F
LEES SUMMIT    PTSUNNY   87  64  46 N5        29.93F
OLATHE - IXD   CLOUDY    88  64  44 CALM      29.93F
OLATHE - OJC   CLOUDY    87  62  43 W3        29.92F
LAWRENCE       CLOUDY    90  66  45 E5        29.90F HX  92

$$

MOZ001>008-011>017-020>025-030>033-038>040-044>046-053-054-302200-
...NORTHERN AND CENTRAL MISSOURI...

CITY           SKY/WX    TMP DP  RH WIND       PRES   REMARKS
ST. JOSEPH     CLOUDY    84  69  60 E8        29.91F
WARRENSBURG    PTSUNNY   82  66  57 NW3       29.92F
WHITEMAN AFB   CLOUDY    84  68  58 NW3       29.92S
CLINTON        MOSUNNY   88  70  55 NW6       29.93S HX  92
SEDALIA        CLOUDY    83  70  64 W3        29.94S
WARSAW         FAIR      84  66  54 CALM      29.94S
CHILLICOTHE      N/A     79  70  74 W3        29.92F
KIRKSVILLE     MOSUNNY   81  66  60 W9        29.91S

$$

MOZ041-047>049-056>058-063>065-088>090-097-302200-
...EASTERN AND SOUTHERN MISSOURI...

CITY           SKY/WX    TMP DP  RH WIND       PRES   REMARKS
ST. LOUIS INTL MOSUNNY   86  66  51 W12       29.87F
SPIRIT OF STL  CLOUDY    83  70  64 W8        29.87F
COLUMBIA       MOSUNNY   82  68  62 W10       29.91F
JEFFERSON CITY SUNNY     84  65  52 W9        29.90F
MEXICO         MOSUNNY   84  72  65 W10       29.90S
ROLLA          SUNNY     81  68  64 W9        29.92F
OSAGE BEACH    PTSUNNY   82  70  65 NW5       29.93F
SPRINGFIELD    PTSUNNY   86  67  52 VRB5      29.95F
BRANSON        SUNNY     84  68  58 W7        29.97F
NEVADA         MOSUNNY   88  70  55 N5        29.94S HX  92
JOPLIN         MOSUNNY   89  69  51 W6        29.93F HX  93
WEST PLAINS    MOSUNNY   84  67  56 W10       29.96F
MALDEN         SUNNY     88  66  48 W9        29.90F HX  90

$$

IAZ060-094-KSZ022-034>040-054-083-096-NEZ052-066-093-302200-
...KANSAS...SOUTHEAST NEBRASKA AND IOWA...

CITY           SKY/WX    TMP DP  RH WIND       PRES   REMARKS
TOPEKA         PTSUNNY   91  65  41 E9        29.89F HX  93
MANHATTAN      PTSUNNY   98  59  27 SW9       29.85F HX  98
EMPORIA        MOSUNNY   95  61  32 S9        29.90F HX  95
CHANUTE        MOSUNNY   93  64  38 S7        29.91F HX  94
WICHITA        MOSUNNY   99  58  25 SW9G17    29.89F HX  98
OMAHA          LGT RAIN  75  69  81 N6        29.91R
LINCOLN        CLOUDY    85  61  44 E10       29.90F
FALLS CITY     CLOUDY    81  69  67 E7        29.91F
LAMONI         CLOUDY    80  69  69 W8        29.92F
DES MOINES     CLOUDY    81  63  54 NW8       29.89F

$$




USA.gov is the U.S. government's official web portal to all federal, state and local government web resources and services.